| time (UTC) | temp F | wind direction | speed MPH | gust MPH | rain 1hr in | rain 24hr in | rain mn in | humidity % | barometer mb |
| 20260505064317 | 72 | 130 | 0.0 | 0.0 | 0.00 | 0.00 | 0.00 | 88 | 1013.1 |
| 20260505063316 | 72 | 130 | 0.0 | 0.0 | 0.00 | 0.00 | 0.00 | 88 | 1013.1 |
| 20260505062337 | 73 | 130 | 0.0 | 1.0 | 0.00 | 0.00 | 0.00 | 88 | 1013.2 |
| 20260505061340 | 73 | 130 | 0.0 | 2.0 | 0.00 | 0.00 | 0.00 | 88 | 1013.1 |
| 20260505060320 | 73 | 131 | 0.0 | 2.0 | 0.00 | 0.00 | 0.00 | 87 | 1013.2 |
| 20260505055316 | 73 | 131 | 0.0 | 2.0 | 0.00 | 0.00 | 0.00 | 87 | 1013.4 |
| 20260505054318 | 73 | 136 | 0.0 | 0.0 | 0.00 | 0.00 | 0.00 | 87 | 1013.5 |
| 20260505053319 | 73 | 136 | 0.0 | 0.0 | 0.00 | 0.00 | 0.00 | 87 | 1013.6 |
| 20260505052321 | 73 | 136 | 0.0 | 0.0 | 0.00 | 0.00 | 0.00 | 87 | 1013.5 |
| 20260505051343 | 73 | 136 | 0.0 | 0.0 | 0.00 | 0.00 | 0.00 | 87 | 1013.6 |
| 20260505050324 | 73 | 136 | 0.0 | 1.0 | 0.00 | 0.00 | 0.00 | 87 | 1013.6 |
| 20260505041326 | 73 | 148 | 1.0 | 3.0 | 0.00 | 0.00 | 0.00 | 86 | 1014.0 |
| 20260505040327 | 73 | 148 | 0.0 | 0.0 | 0.00 | 0.00 | 0.00 | 86 | 1014.0 |
| 20260505035319 | 73 | 148 | 2.0 | 3.0 | 0.00 | 0.00 | 0.00 | 86 | 1014.0 |
| 20260505034345 | 74 | 153 | 1.0 | 2.0 | 0.00 | 0.00 | 0.00 | 86 | 1014.1 |
| 20260505033327 | 74 | 153 | 0.0 | 0.0 | 0.00 | 0.00 | 0.00 | 86 | 1014.3 |
| 20260505032314 | 74 | 153 | 1.0 | 2.0 | 0.00 | 0.00 | 0.00 | 85 | 1014.2 |
| 20260505031318 | 74 | 157 | 0.0 | 2.0 | 0.00 | 0.00 | 0.00 | 85 | 1014.2 |
| 20260505030321 | 74 | 157 | 1.0 | 1.0 | 0.00 | 0.00 | 0.00 | 85 | 1014.3 |
| 20260505025319 | 74 | 157 | 0.0 | 1.0 | 0.00 | 0.00 | 0.00 | 85 | 1014.4 |
| 20260505024323 | 74 | 157 | 0.0 | 1.0 | 0.00 | 0.00 | 0.00 | 85 | 1014.3 |
| 20260505023349 | 75 | 157 | 0.0 | 0.0 | 0.00 | 0.00 | 0.00 | 85 | 1014.4 |
| 20260505022352 | 75 | 157 | 0.0 | 3.0 | 0.00 | 0.00 | 0.00 | 85 | 1014.4 |
| 20260505021335 | 75 | 185 | 0.0 | 2.0 | 0.00 | 0.00 | 0.00 | 84 | 1014.4 |
| 20260505020318 | 75 | 185 | 1.0 | 3.0 | 0.00 | 0.00 | 0.00 | 84 | 1014.3 |
| 20260505015321 | 75 | 196 | 1.0 | 2.0 | 0.00 | 0.00 | 0.00 | 84 | 1014.3 |
| 20260505014326 | 75 | 198 | 0.0 | 2.0 | 0.00 | 0.00 | 0.00 | 83 | 1014.2 |
| 20260505013331 | 75 | 200 | 0.0 | 2.0 | 0.00 | 0.00 | 0.00 | 83 | 1014.1 |
| 20260505012315 | 76 | 200 | 0.0 | 1.0 | 0.00 | 0.00 | 0.00 | 83 | 1014.1 |
| 20260505011316 | 76 | 200 | 0.0 | 1.0 | 0.00 | 0.00 | 0.00 | 82 | 1013.9 |
| 20260505010318 | 76 | 200 | 0.0 | 1.0 | 0.00 | 0.00 | 0.00 | 82 | 1014.0 |
| 20260505005339 | 76 | 200 | 0.0 | 1.0 | 0.00 | 0.00 | 0.00 | 82 | 1013.8 |
| 20260505004323 | 77 | 200 | 0.0 | 2.0 | 0.00 | 0.00 | 0.00 | 82 | 1013.7 |
| 20260505003347 | 77 | 201 | 0.0 | 2.0 | 0.00 | 0.00 | 0.00 | 81 | 1013.6 |
| 20260505002341 | 77 | 201 | 0.0 | 2.0 | 0.00 | 0.00 | 0.00 | 81 | 1013.4 |
| 20260505001321 | 78 | 202 | 1.0 | 3.0 | 0.00 | 0.00 | 0.00 | 80 | 1013.3 |
| 20260505000324 | 78 | 205 | 0.0 | 1.0 | 0.00 | 0.00 | 0.00 | 80 | 1013.2 |
| 20260504235326 | 78 | 99 | 0.0 | 2.0 | 0.00 | 0.00 | 0.00 | 79 | 1013.1 |
| 20260504234323 | 78 | 98 | 0.0 | 2.0 | 0.00 | 0.00 | 0.00 | 79 | 1013.1 |
| 20260504233328 | 79 | 98 | 0.0 | 2.0 | 0.00 | 0.00 | 0.00 | 78 | 1013.0 |
| 20260504232316 | 79 | 98 | 0.0 | 0.0 | 0.00 | 0.00 | 0.00 | 77 | 1012.8 |
| 20260504231314 | 80 | 98 | 0.0 | 2.0 | 0.00 | 0.00 | 0.00 | 77 | 1012.7 |
| 20260504230319 | 80 | 34 | 0.0 | 2.0 | 0.00 | 0.00 | 0.00 | 76 | 1012.7 |
| 20260504225321 | 81 | 38 | 1.0 | 5.0 | 0.00 | 0.00 | 0.00 | 75 | 1012.6 |
| 20260504224341 | 81 | 122 | 1.0 | 4.0 | 0.00 | 0.00 | 0.00 | 74 | 1012.5 |
| 20260504223322 | 82 | 109 | 2.0 | 6.0 | 0.00 | 0.00 | 0.00 | 73 | 1012.4 |
| 20260504222324 | 82 | 155 | 1.0 | 3.0 | 0.00 | 0.00 | 0.00 | 71 | 1012.3 |
| 20260504221326 | 83 | 102 | 2.0 | 8.0 | 0.00 | 0.00 | 0.00 | 70 | 1012.2 |
| 20260504220331 | 84 | 113 | 2.0 | 7.0 | 0.00 | 0.00 | 0.00 | 69 | 1012.1 |
| 20260504215313 | 84 | 119 | 2.0 | 5.0 | 0.00 | 0.00 | 0.00 | 68 | 1011.9 |
| 20260504214315 | 85 | 128 | 1.0 | 3.0 | 0.00 | 0.00 | 0.00 | 67 | 1011.9 |
| 20260504213336 | 86 | 105 | 0.0 | 3.0 | 0.00 | 0.00 | 0.00 | 66 | 1011.9 |
| 20260504212341 | 86 | 145 | 1.0 | 7.0 | 0.00 | 0.00 | 0.00 | 65 | 1011.7 |
| 20260504211322 | 87 | 105 | 2.0 | 8.0 | 0.00 | 0.00 | 0.00 | 65 | 1011.7 |
| 20260504210322 | 88 | 95 | 3.0 | 8.0 | 0.00 | 0.00 | 0.00 | 63 | 1011.6 |
| 20260504192325 | 92 | 150 | 3.0 | 10.0 | 0.00 | 0.00 | 0.00 | 58 | 1012.2 |
| 20260504191325 | 93 | 254 | 2.0 | 9.0 | 0.00 | 0.00 | 0.00 | 58 | 1012.2 |
| 20260504190344 | 93 | 144 | 3.0 | 9.0 | 0.00 | 0.00 | 0.00 | 57 | 1012.2 |
| 20260504185324 | 92 | 121 | 1.0 | 7.0 | 0.00 | 0.00 | 0.00 | 59 | 1012.3 |
| 20260504184326 | 92 | 148 | 4.0 | 11.0 | 0.00 | 0.00 | 0.00 | 57 | 1012.4 |
| 20260504183331 | 92 | 196 | 2.0 | 7.0 | 0.00 | 0.00 | 0.00 | 57 | 1012.5 |
| 20260504182332 | 92 | 210 | 2.0 | 7.0 | 0.00 | 0.00 | 0.00 | 59 | 1012.6 |
| 20260504181329 | 91 | 244 | 2.0 | 6.0 | 0.00 | 0.00 | 0.00 | 60 | 1012.8 |
| 20260504180322 | 92 | 190 | 3.0 | 8.0 | 0.00 | 0.00 | 0.00 | 60 | 1012.8 |
| 20260504175318 | 92 | 162 | 2.0 | 9.0 | 0.00 | 0.00 | 0.00 | 61 | 1013.0 |
| 20260504174337 | 93 | 113 | 3.0 | 9.0 | 0.00 | 0.00 | 0.00 | 57 | 1013.2 |
| 20260504173317 | 93 | 174 | 4.0 | 7.0 | 0.00 | 0.00 | 0.00 | 58 | 1013.3 |
| 20260504172319 | 93 | 165 | 1.0 | 7.0 | 0.00 | 0.00 | 0.00 | 56 | 1013.4 |
| 20260504171317 | 93 | 113 | 2.0 | 9.0 | 0.00 | 0.00 | 0.00 | 57 | 1013.6 |
| 20260504170321 | 92 | 192 | 2.0 | 10.0 | 0.00 | 0.00 | 0.00 | 57 | 1013.8 |
| 20260504160332 | 92 | 153 | 2.0 | 7.0 | 0.00 | 0.00 | 0.00 | 60 | 1014.7 |
| 20260504150320 | 91 | 115 | 4.0 | 13.0 | 0.00 | 0.00 | 0.00 | 60 | 1014.9 |
| 20260504140319 | 88 | 135 | 4.0 | 10.0 | 0.00 | 0.00 | 0.00 | 65 | 1015.0 |
| 20260504130341 | 84 | 182 | 1.0 | 9.0 | 0.00 | 0.00 | 0.00 | 73 | 1015.0 |
| 20260504110353 | 74 | 107 | 0.0 | 3.0 | 0.00 | 0.00 | 0.00 | 89 | 1014.2 |
| 20260504100315 | 72 | 103 | 0.0 | 0.0 | 0.00 | 0.00 | 0.00 | 89 | 1013.8 |
| 20260504081322 | 72 | 104 | 0.0 | 0.0 | 0.00 | 0.00 | 0.00 | 88 | 1012.8 |
| 20260504080325 | 72 | 104 | 0.0 | 0.0 | 0.00 | 0.00 | 0.00 | 88 | 1012.8 |
| 20260504070336 | 73 | 104 | 0.0 | 0.0 | 0.00 | 0.00 | 0.00 | 87 | 1012.4 |